OV1-9 R/B, 2622

Orbit data source: Space-Track

OV1-9 R/B, 2622 is space debris in LEO originally from a launch on Sun, 11 Dec 1966 UTC launched from the Air Force Western Test Range (AFWTR). Debris objects in space refer to the collection of defunct objects orbiting the Earth. Examples of debris include non-operational satellites, rocket bodies, and fragments generated from explosions, collisions, or faulty payload assembly.

Loading next visibility...
OV1-9 R/B details
Identifier
2622, 1966-111D
Orbit
LEO
Last TLE update14 hours ago
Origin
Flag of USUSAF OAR (US)
ManufacturerABL
MissionSpacecraft
Bus & MotorALTAIR, Unknown motor
Mass125 kg wet, 125 kg dry
Launch date (UTC)
1966-12-11 (58 years ago)
Launch vehicleUnknown
Launch site
Air Force Western Test Range (AFWTR)
Object type
Payload
Rocket body
Debris
Shape & HBRCyl, 2.1 m
Radar Cross Section1.347 m², Large (>1 m²)

Expand to show TLE details & history

TLE from 14 hours ago
0 OV1-9 R/B
1  2622U 66111D   24355.92450766  .00003262  00000-0  12773-2 0  9990
2  2622  99.0927 144.1754 2228127 185.3854 171.8822 10.48563193187548
Epoch: 2024-12-20T22:11Z
Definitive object data (Epoch: 2024-12-20T22:11:17.461Z)
Latitude-0.00006°
Longitude81.36962°
Altitude4,393.438 km
Speed5.369 km/s
True Right ascension09h 36m 42s
True Declination0° 00' 00"
Sunlit
Object was in daylight at TLE epoch
Visualization TLE readout
Latitude73.37754°
Longitude49.44335°
Altitude2,651.326 km
Speed6.575 km/s
Apparent Right ascension01h 44m 25s
Apparent Declination46° 25' 57"
Sunlit
Object is in daylight
Visualization observer readout
Local Sidereal Time11:37:08
Azimuth338.69° N
Elevation0.903°
Doppler factor1
Orbital elements
Apogee altitude4,400.806 km
Perigee altitude472.673 km
Semi-major axis8,814.876 km
Eccentricity0.2228127
Inclination99.0927°
RAAN144.1754°
Arg. of periapsis185.3854°
True anomaly174.70318°
Mean anomaly171.8822°
Eccentric anomaly173.35866°
Mean motion2.62252 °/min
BSTAR0.0012773
Orbital period137.27 mins
Loading maneuver chart data...
Loading historical data...
Loading historical data...
Loading historical data...
Loading historical data...
Loading historical data...
Loading historical data...
Loading historical data...
Other satellites on launch #111 in the year 1966 (1966-12-11 UTC)

OV1-9 R/B Visibility forecast

Observer location: undefined°, undefined

Span
Click to sort rows by Start time (UTC) header in descending order
Start Az.
Max El. time (UTC)
Max El. Az.
Max El.
End time (UTC)
End Az.
8 mins2024-12-21 22:00:19.445Z32.067° NE2024-12-21 22:05:19.445Z82.18° E23.419°2024-12-21 22:08:19.445Z134.405° SE
8 mins2024-12-22 00:16:19.445Z351.153° N2024-12-22 00:20:19.445Z314.707° NW21.596°2024-12-22 00:24:19.445Z258.175° W
18 mins2024-12-22 06:36:19.445Z76.836° E2024-12-22 06:46:19.445Z45.22° ENE17.786°2024-12-22 06:54:19.445Z11.643° NNE
36 mins2024-12-22 08:36:19.445Z134.883° SE2024-12-22 08:57:19.445Z67.467° ENE40.437°2024-12-22 09:12:19.445Z353.408° N
38 mins2024-12-22 10:49:19.445Z185.331° SSW2024-12-22 11:11:19.445Z262.836° W40.204°2024-12-22 11:27:19.445Z337.951° N
|